Find Kosmos-1541

NORAD ID: 14790 Int'l Des: 1984-024 Owner: PVO Country: SU operational
MEOELLIPTICALHEO_ELLIPTICALSEMI_SYNC

Live Position

Loading 3D Globe...

About Kosmos-1541

Description loading...

Upcoming Passes

Passes for default location (London). Set your location on the main map for personalized predictions.

Altitude History

Loading altitude history...

Two-Line Element Set

1 14790U 84024A 26104.44478513 .00000204 00000-0 00000+0 0 9993
2 14790 71.7153 150.8805 5149523 342.4054 33.4945 2.00580522280669
Epoch: Apr 14, 2026 • Age: 21 hours

Current Status

Altitude 15136.6 km
Velocity 4.70 km/s
Sub-Earth Point -57.23°S, 36.07°E
Launch Date Mar 6, 1984
Age 42.1 years
Type other

Technical Details

Classification Payload
Mass 1250.00 kg
Dry Mass 1150.00 kg
Total Mass 1250.00 kg
Length 4.00 m
Diameter 2.00 m
Span 5.00 m
Shape Cyl + 2 Pan
Manufacturer NPOL/KOMET
Bus Type Oko
Phase Status In Orbit
Owner/State PVO/SU

Most Searched